Welcome to the New NWS' Forecast!
Most changes are behind the scenes, but click here for differences you might notice.

Regional Weather Roundup (RWR)

Issued by National Weather Service (NWS)

                            
659 
ASCA42 TJSJ 201210
RWRPR 
PUERTO RICO/U.S. VIRGIN ISLANDS HOURLY WEATHER ROUNDUP
NATIONAL WEATHER SERVICE SAN JUAN PR
800 AM AST MON AUG 20 2018

PRZ001>002-007>008-010-201300-
PUERTO RICO
  
CITY           SKY/WX    TMP DP  RH WIND       PRES   REMARKS
SAN JUAN LMM   MOSUNNY   82  75  78 E8        30.06R                  
AGUADILLA      SUNNY     79  72  78 E10       30.06S                  
CEIBA          MOSUNNY   84  77  79 E12       30.08R HX  94           
$$

VIZ001>002-201300-
U.S. VIRGIN ISLANDS
  
CITY           SKY/WX    TMP DP  RH WIND       PRES   REMARKS
CHARLOTTE AMA  MOSUNNY   84  73  70 E12       30.06R HX  91           
CHRISTIANSTED  MOSUNNY   84  77  79 E15       30.06R HX  94           
$$

HOURLY WEATHER ROUNDUP FOR THE NEWS MEDIA
  
CITY           SKY/WX    TMP DP  RH WIND       PRES   REMARKS
ORLANDO        FAIR      78  74  87 CALM      30.10R                  
NEW YORK       PTSUNNY   69  64  84 NE9       30.13R                  
NEWARK         FAIR      69  61  75 N14       30.12S                  
CHICAGO        MOCLDY    73  63  70 E10       29.91S                  
HARTFORD       LGT RAIN  66  66 100 N7        30.12R FOG              
BOSTON         CLOUDY    68  62  81 N10       30.17R                  
DALLAS         PTCLDY    81  71  71 SW6       29.93R                  
PHILADELPHIA   PTSUNNY   68  62  81 NE10      30.11R                  
LOS ANGELES    CLOUDY    72  66  81 E3        29.90R                  
WASHINGTON DC  PTSUNNY   69  67  93 NE8       30.07S